THORAD AGENA D DEB, 4681

Orbit data source: Space-Track

THORAD AGENA D DEB, 4681 is space debris in SSO originally from a launch on Wed, 08 Apr 1970 UTC launched from the Air Force Western Test Range (AFWTR). Debris objects in space refer to the collection of defunct objects orbiting the Earth. Examples of debris include non-operational satellites, rocket bodies, and fragments generated from explosions, collisions, or faulty payload assembly.

Loading next visibility...
Identifier
4681, 1970-025BE
Orbit
SSO
Country
Flag of USUS
Related business
Manufacturer
Unknown
Mission
Spacecraft
Bus & Motor
Unknown
Mass
Unknown
Launch date (UTC)
1970-04-08 (56 years ago)
Launch vehicle
Unknown
Launch site
Air Force Western Test Range (AFWTR)
Object type
Payload
Rocket body
Debris
Shape & HBR
Unknown shape, 0.2 m
Radar Cross Section
Small (<0.1 m²)

Expand to show TLE details & history
Last TLE update: 15 hours ago

TLE from 15 hours ago
0 THORAD AGENA D DEB
1 04681U 70025BE  25287.14228819  .00000381  00000-0  10746-2 0  9994
2 04681  99.8678 163.5891 0241989 250.8283 265.1568 13.08701033643004
Epoch: 2025-10-14T03:24Z
TLE epoch observation values (Epoch: 2025-10-14T03:24:53.699Z)
Latitude
26.37717°
Longitude
-85.64592°
Altitude
1,251.185 km
Speed
7.222 km/s
True Right ascension
23h 14m 03s
True Declination
26° 14' 58"
Sunlit
Object was in full shadow at epoch
Visualization orbit readout
Latitude
Unknown
Longitude
Unknown
Altitude
Unknown
Speed
Unknown
Apparent Right ascension
Unknown
Apparent Declination
Unknown
Sunlit
N/A
Visualization observer readout
Local Sidereal Time
12:54:20
Azimuth
Unknown
Elevation
Unknown
Doppler factor
Unknown
Orbital elements
Apogee altitude
1,409.552 km
Perigee altitude
1,041.55 km
Semi-major axis
7,603.688 km
Eccentricity
0.0242
Inclination
99.8678°
RAAN
163.5891°
Arg. of periapsis
250.8283°
True anomaly
262.40181°
Mean anomaly
265.1568°
Eccentric anomaly
263.77847°
Mean motion
3.27346 °/min
Orbital period
109.98 mins
BSTAR
0.0010746

Documentation

Showing up to 5 results
|